Location: Fernhill
(41.0167°S, 175.6333°E)
Time: 15:54:22
(UTC+00:00)

Meteor 2-6 Rocket - Pass Details

Date: 25 February 2026
Orbit: 804 x 913 km, 81.3° (Epoch: 7 March)

Event Time Altitude Azimuth Distance (km) Brightness Sun altitude
Exits shadow 09:51:41 34° 322° (NW) 1,438 5.3 -28.1°
Maximum altitude 09:54:09 59° 258° (WSW) 1,042 4.8 -28.4°
Drops below altitude 10° 10:00:05 10° 178° (S) 2,627 7.3 -29.2°
Sets 10:02:39 0° 174° (S) 3,582 8.0 -29.5°
